Fergus Falls, MN

5:01 AM CST on November 18, 2017 (GMT -0600)
Fergus Falls Municipal-Mickelson

Weather History for KFFM - January, 2013

Change the Weather History Date:

Sunday, January 13, 2013

  Actual Average Record
Temperature  
Mean Temperature 1 °F -  
Max Temperature 6 °F 16 °F 47 °F (1987)
Min Temperature -4 °F -1 °F -33 °F (1977)
Degree Days  
Heating Degree Days 64    
Moisture  
Dew Point -5 °F    
Average Humidity 78    
Maximum Humidity 85    
Minimum Humidity 71    
Precipitation  
Precipitation 0.00 in - - ()
Sea Level Pressure  
Sea Level Pressure 30.15 in    
Wind  
Wind Speed 11 mph (NW)    
Max Wind Speed 17 mph    
Max Gust Speed 25 mph    
Visibility 10 miles    
Events      
Averages and records for this station are not official NWS values.
T = Trace of Precipitation, MM = Missing Value Source: NWS Daily Summary

Daily Weather History Graph

Daily Weather History Graph

Search for Another Location

Airport or City:

Trip Planner

Search our weather history database for the weather conditions in past years. The results will help you decide how hot, cold, wet, or windy it might be!

Date:

Astronomy

Jan. 13, 2013 Rise Set
Actual Time 8:04 AM CST 5:02 PM CST
Civil Twilight 7:30 AM CST 5:36 PM CST
Nautical Twilight 6:53 AM CST 6:14 PM CST
Astronomical Twilight 6:17 AM CST 6:50 PM CST
Moon 8:53 AM CST (1/13) 7:54 PM CST (1/13)
Length of Visible Light 10h 06m
Length of Day
8h 58m
Waxing Crescent, 5% of the Moon is Illuminated
Jan 13
Waxing Crescent
Jan 18
First Quarter
Jan 26
Full
Feb 3
Last Quarter
Feb 10
New

Hourly Weather History & Observations

Time (CST) Temp. Windchill Dew Point Humidity Pressure Visibility Wind Dir Wind Speed Gust Speed Precip Events Conditions
12:13 AM -2.2 °F -22.9 °F -7.6 °F 78% 30.12 in 10.0 mi NNW 16.1 mph 23.0 mph N/A   Clear
12:33 AM -2.2 °F -19.9 °F -7.6 °F 78% 30.11 in 10.0 mi North 11.5 mph 25.3 mph N/A   Clear
12:53 AM -2.2 °F -19.9 °F -7.6 °F 78% 30.10 in 10.0 mi NNW 11.5 mph - N/A   Clear
1:13 AM -2.2 °F -19.9 °F -7.6 °F 78% 30.11 in 10.0 mi NNW 11.5 mph - N/A   Clear
1:33 AM -2.2 °F -23.5 °F -7.6 °F 78% 30.10 in 10.0 mi NNW 17.3 mph - N/A   Clear
1:53 AM -2.2 °F -21.5 °F -7.6 °F 78% 30.10 in 10.0 mi NNW 13.8 mph 21.9 mph N/A   Clear
2:13 AM -2.2 °F -23.5 °F -9.4 °F 71% 30.11 in 10.0 mi NNW 17.3 mph 20.7 mph N/A   Clear
2:33 AM -2.2 °F -19.9 °F -7.6 °F 78% 30.11 in 10.0 mi NNW 11.5 mph - N/A   Clear
2:53 AM -4.0 °F -22.1 °F -9.4 °F 78% 30.11 in 10.0 mi NNW 11.5 mph - N/A   Clear
3:13 AM -4.0 °F -22.1 °F -9.4 °F 78% 30.11 in 10.0 mi North 11.5 mph 19.6 mph N/A   Clear
3:33 AM -4.0 °F -23.7 °F -9.4 °F 78% 30.11 in 10.0 mi NNW 13.8 mph 17.3 mph N/A   Clear
3:53 AM -4.0 °F -23.0 °F -9.4 °F 78% 30.11 in 10.0 mi NNW 12.7 mph - N/A   Clear
4:13 AM -4.0 °F -24.5 °F -9.4 °F 78% 30.10 in 10.0 mi NNW 15.0 mph 21.9 mph N/A   Clear
4:33 AM -4.0 °F -24.5 °F -9.4 °F 78% 30.10 in 10.0 mi NNW 15.0 mph - N/A   Clear
4:53 AM -4.0 °F -20.2 °F -9.4 °F 78% 30.11 in 10.0 mi NNW 9.2 mph - N/A   Clear
5:13 AM -4.0 °F -20.2 °F -9.4 °F 78% 30.12 in 10.0 mi NNW 9.2 mph - N/A   Clear
5:33 AM -4.0 °F -23.0 °F -9.4 °F 78% 30.12 in 10.0 mi NNW 12.7 mph - N/A   Clear
5:53 AM -4.0 °F -22.1 °F -9.4 °F 78% 30.13 in 10.0 mi NW 11.5 mph - N/A   Clear
6:13 AM -4.0 °F -22.1 °F -9.4 °F 78% 30.14 in 10.0 mi NW 11.5 mph - N/A   Clear
6:34 AM -4.0 °F -21.2 °F -9.4 °F 78% 30.14 in 10.0 mi NNW 10.4 mph - N/A   Clear
6:53 AM -4.0 °F -20.2 °F -9.4 °F 78% 30.14 in 10.0 mi NNW 9.2 mph - N/A   Clear
7:13 AM -4.0 °F -17.8 °F -9.4 °F 78% 30.14 in 10.0 mi NNW 6.9 mph - N/A   Clear
7:33 AM -4.0 °F -16.3 °F -9.4 °F 78% 30.14 in 10.0 mi North 5.8 mph - N/A   Clear
7:53 AM -4.0 °F -12.4 °F -9.4 °F 78% 30.15 in 10.0 mi North 3.5 mph - N/A   Clear
8:13 AM -4.0 °F -14.6 °F -9.4 °F 78% 30.16 in 10.0 mi North 4.6 mph - N/A   Clear
8:33 AM -4.0 °F -19.0 °F -9.4 °F 78% 30.16 in 10.0 mi NW 8.1 mph - N/A   Clear
8:53 AM -4.0 °F -16.3 °F -9.4 °F 78% 30.17 in 10.0 mi NW 5.8 mph - N/A   Clear
9:13 AM -2.2 °F -12.5 °F -9.4 °F 71% 30.18 in 10.0 mi NW 4.6 mph - N/A   Clear
9:33 AM -2.2 °F -15.6 °F -9.4 °F 71% 30.18 in 10.0 mi NW 6.9 mph - N/A   Clear
9:53 AM -2.2 °F -15.6 °F -7.6 °F 78% 30.19 in 10.0 mi NW 6.9 mph - N/A   Clear
10:13 AM -2.2 °F -14.2 °F -7.6 °F 78% 30.19 in 10.0 mi NW 5.8 mph - N/A   Clear
10:33 AM -0.4 °F -14.7 °F -7.6 °F 72% 30.18 in 10.0 mi NW 8.1 mph - N/A   Clear
10:53 AM -0.4 °F -14.7 °F -7.6 °F 72% 30.17 in 10.0 mi NW 8.1 mph - N/A   Clear
11:13 AM -0.4 °F -13.4 °F -5.8 °F 78% 30.16 in 10.0 mi NW 6.9 mph - N/A   Clear
11:33 AM 1.4 °F -11.3 °F -5.8 °F 72% 30.15 in 10.0 mi NW 6.9 mph - N/A   Clear
11:53 AM 1.4 °F -12.5 °F -5.8 °F 72% - 10.0 mi NW 8.1 mph - N/A   Clear
12:13 PM 1.4 °F -11.3 °F -5.8 °F 72% 30.14 in 10.0 mi WNW 6.9 mph - N/A   Clear
12:33 PM 1.4 °F -14.5 °F -4.0 °F 78% 30.13 in 10.0 mi WNW 10.4 mph - N/A   Clear
12:53 PM 3.2 °F -11.3 °F -4.0 °F 72% 30.12 in 10.0 mi WNW 9.2 mph - N/A   Clear
1:13 PM 3.2 °F -10.3 °F -2.2 °F 78% 30.11 in 10.0 mi WNW 8.1 mph - N/A   Clear
1:33 PM 5.0 °F -9.1 °F -2.2 °F 72% 30.11 in 10.0 mi WNW 9.2 mph - N/A   Clear
1:53 PM 6.8 °F -6.9 °F -0.4 °F 72% 30.11 in 10.0 mi WNW 9.2 mph - N/A   Clear
2:13 PM 6.8 °F -7.8 °F -0.4 °F 72% 30.11 in 10.0 mi WNW 10.4 mph - N/A   Clear
2:33 PM 6.8 °F -6.9 °F -0.4 °F 72% 30.12 in 10.0 mi WNW 9.2 mph - N/A   Clear
2:53 PM 6.8 °F -7.8 °F 1.4 °F 79% 30.13 in 10.0 mi WNW 10.4 mph - N/A   Clear
3:14 PM 6.8 °F -5.9 °F -0.4 °F 72% 30.13 in 10.0 mi WNW 8.1 mph - N/A   Clear
3:33 PM 6.8 °F -6.9 °F -0.4 °F 72% 30.13 in 10.0 mi WNW 9.2 mph - N/A   Clear
3:53 PM 6.8 °F -4.8 °F 1.4 °F 79% 30.14 in 10.0 mi WNW 6.9 mph - N/A   Clear
4:14 PM 6.8 °F -4.8 °F 1.4 °F 79% 30.14 in 10.0 mi WNW 6.9 mph - N/A   Scattered Clouds
4:33 PM 6.8 °F -4.8 °F 1.4 °F 79% 30.14 in 10.0 mi WNW 6.9 mph - N/A   Scattered Clouds
4:53 PM 6.8 °F -2.0 °F 1.4 °F 79% 30.14 in 10.0 mi NW 4.6 mph - N/A   Clear
5:13 PM 6.8 °F -3.5 °F 1.4 °F 79% 30.15 in 10.0 mi NW 5.8 mph - N/A   Clear
5:33 PM 5.0 °F -6.9 °F -0.4 °F 78% 30.15 in 10.0 mi NNW 6.9 mph - N/A   Clear
5:53 PM 5.0 °F -6.9 °F -0.4 °F 78% 30.16 in 10.0 mi NW 6.9 mph - N/A   Mostly Cloudy
6:13 PM 6.8 °F -5.9 °F 1.4 °F 79% 30.16 in 10.0 mi NW 8.1 mph - N/A   Overcast
6:33 PM 6.8 °F -6.9 °F 1.4 °F 79% 30.16 in 10.0 mi NW 9.2 mph - N/A   Overcast
6:53 PM 6.8 °F -7.8 °F 1.4 °F 79% 30.16 in 10.0 mi NW 10.4 mph - N/A   Mostly Cloudy
7:13 PM 5.0 °F -10.0 °F -0.4 °F 78% 30.16 in 10.0 mi NW 10.4 mph - N/A   Overcast
7:33 PM 3.2 °F -12.2 °F -0.4 °F 85% 30.17 in 10.0 mi NW 10.4 mph - N/A   Mostly Cloudy
7:53 PM 3.2 °F -11.3 °F -2.2 °F 78% 30.17 in 10.0 mi NW 9.2 mph - N/A   Scattered Clouds
8:13 PM 1.4 °F -13.5 °F -2.2 °F 85% 30.18 in 10.0 mi NW 9.2 mph - N/A   Clear
8:33 PM 1.4 °F -13.5 °F -2.2 °F 85% 30.18 in 10.0 mi NW 9.2 mph - N/A   Clear
8:53 PM 1.4 °F -13.5 °F -2.2 °F 85% 30.19 in 10.0 mi NW 9.2 mph - N/A   Clear
9:13 PM 1.4 °F -12.5 °F -4.0 °F 78% 30.19 in 10.0 mi NW 8.1 mph - N/A   Clear
9:33 PM -0.4 °F -12.0 °F -5.8 °F 78% 30.19 in 10.0 mi WNW 5.8 mph - N/A   Clear
9:53 PM -0.4 °F -12.0 °F -5.8 °F 78% 30.20 in 10.0 mi NW 5.8 mph - N/A   Scattered Clouds
10:13 PM -0.4 °F -12.0 °F -4.0 °F 85% 30.20 in 10.0 mi NW 5.8 mph - N/A   Mostly Cloudy
10:33 PM 1.4 °F -8.3 °F -4.0 °F 78% 30.21 in 10.0 mi WNW 4.6 mph - N/A   Overcast
10:53 PM 1.4 °F -11.3 °F -2.2 °F 85% 30.21 in 10.0 mi NW 6.9 mph - N/A   Overcast
11:13 PM 1.4 °F -13.5 °F -2.2 °F 85% 30.22 in 10.0 mi NNW 9.2 mph - N/A   Overcast
11:33 PM 3.2 °F -10.3 °F -2.2 °F 78% 30.23 in 10.0 mi NW 8.1 mph - N/A   Overcast
11:54 PM 3.2 °F -11.3 °F -2.2 °F 78% 30.22 in 10.0 mi NNW 9.2 mph - N/A   Overcast